Weather Roundup
Issued by NWS

Home | Current Version | Previous Version | Graphics & Text | Print | Product List | Glossary Off
Versions: 1 2 3 4 5 6 7 8 9 10 11 12 13 14 15 16 17 18 19 20 21 22 23 24 25 26 27 28 29 30 31 32 33 34 35 36 37 38 39 40 41 42 43 44 45 46 47 48 49 50

000
NZUS93 KARX 022259
HRRWXR

CURRENT HOURLY OBSERVATIONS ACROSS
MUCH OF THE UPPER MISSISSIPPI VALLEY
NATIONAL WEATHER SERVICE LA CROSSE WI
600 PM CDT WED SEP 02 2015


...SOUTHEAST MINNESOTA...


CITY           SKY/WX    TMP DP  RH WIND       PRES   REMARKS
ROCHESTER      SUNNY     81  72  74 S10       29.89F
ROCHESTER/MAYO FAIR      83  70  64 S6        29.89F
WINONA         MOSUNNY   82  70  65 CALM      29.88F
AUSTIN         SUNNY     84  72  65 S5        29.88F
ALBERT LEA     SUNNY     84  72  65 S5        29.87F
DODGE CENTER   SUNNY     81  72  74 S7        29.89F
PRESTON        CLOUDY    80  71  73 S5        29.92S
OWATONNA       SUNNY     82  72  69 S6        29.87S
FARIBAULT      SUNNY     84  73  70 S3        29.86F HX  91
$$

...ELSEWHERE IN MINNESOTA...


CITY           SKY/WX    TMP DP  RH WIND       PRES   REMARKS
MINNEAPOLIS    SUNNY     78  69  73 E10       29.87S
INTNL FALLS    MOSUNNY   82  64  54 S5        29.89S
DULUTH         MOSUNNY   71  64  78 SE10      29.95S
RED WING       SUNNY     79  70  73 E6        29.85F
REDWOOD FALLS  MOSUNNY   83  74  74 E6        29.82S
MANKATO        SUNNY     82  73  74 S7        29.85S
WORTHINGTON    MOSUNNY   81  72  74 S7        29.85S
FAIRMONT       SUNNY     84  68  58 S7        29.85S
$$

...SOUTHWEST WISCONSIN...


CITY           SKY/WX    TMP DP  RH WIND       PRES   REMARKS
LA CROSSE      PTSUNNY   84  69  60 S10       29.88F
PRAIRIE DU CHI CLOUDY    82  66  58 SE5       29.90F
BOSCOBEL       CLOUDY    84  68  58 CALM      29.91S
LONE ROCK      NOT AVBL
PLATTEVILLE    MOSUNNY   82  73  74 S9        29.95S
FORT MC COY    PTSUNNY   82  66  59 S5        29.91F
VIROQUA          N/A     80  69  69 S5        29.94F
WIS DELLS      SUNNY     84  62  47 SW8       29.93F
$$

...ELSEWHERE IN WISCONSIN...


CITY           SKY/WX    TMP DP  RH WIND       PRES   REMARKS
MILWAUKEE      CLOUDY    86  68  54 W9        29.94S
MADISON        MOSUNNY   83  68  60 S10       29.93F
GREEN BAY      SUNNY     84  69  60 S5        29.91F
EAU CLAIRE     NOT AVBL
BLACK RVR FLS  FAIR      84  67  57 S7        29.88F
MEDFORD        CLOUDY    67  67  99 NE3       29.92F
WAUSAU         CLOUDY    70  67  90 N10       29.90R
WIS RAPIDS     PTSUNNY   84  65  52 SW12G21   29.88F
MARSHFIELD     PTSUNNY   79  66  64 W5        29.90F
RICE LAKE      CLOUDY    70  66  87 NE5       29.94S
$$

...NORTHEAST IOWA...


CITY           SKY/WX    TMP DP  RH WIND       PRES   REMARKS
DECORAH        CLOUDY    81  72  74 S8        29.91S
MASON CITY     SUNNY     85  72  65 S7        29.89S HX  91
CHARLES CITY   CLOUDY    82  73  74 S9        29.91S
OELWEIN        MOSUNNY   82  73  74 S8G15     29.93R
$$

...ELSEWHERE IN IOWA...


CITY           SKY/WX    TMP DP  RH WIND       PRES   REMARKS
DES MOINES     MOSUNNY   86  67  52 S12       29.88S
IOWA CITY      MOSUNNY   83  69  62 S10       29.94S
FORT DODGE     SUNNY     84  70  61 SW8       29.87S
$$

...NORTHERN ILLINOIS...


CITY           SKY/WX    TMP DP  RH WIND       PRES   REMARKS
CHICAGO-OHARE  PTSUNNY   86  67  52 SW10      29.95S
CHICAGO-MIDWAY PTSUNNY   88  68  51 W10       29.95S HX  91
MOLINE         CLOUDY    85  70  60 S6        29.94S
ROCKFORD       CLOUDY    84  69  60 W7        29.97S
PEORIA         PTSUNNY   89  67  47 W6        29.96F HX  92
$$

NOTE: "FAIR" INDICATES FEW OR NO CLOUDS BELOW 12,000 FEET WITH NO
SIGNIFICANT WEATHER AND/OR OBSTRUCTIONS TO VISIBILITY. WIND
SPEEDS ARE IN MILES-PER-HOUR.



USA.gov is the U.S. government's official web portal to all federal, state and local government web resources and services.